Subject,Start Date,Start Time,End Date,End Time,All Day Event,Description,Location,Private
Sehri,12/03/2024,4:50,,,,Ramadhan 1 for Newham_Baitul Ahad Mosque,,
Sehri,13/03/2024,4:48,,,,Ramadhan 2 for Newham_Baitul Ahad Mosque,,
Sehri,14/03/2024,4:46,,,,Ramadhan 3 for Newham_Baitul Ahad Mosque,,
Sehri,15/03/2024,4:44,,,,Ramadhan 4 for Newham_Baitul Ahad Mosque,,
Sehri,16/03/2024,4:41,,,,Ramadhan 5 for Newham_Baitul Ahad Mosque,,
Sehri,17/03/2024,4:39,,,,Ramadhan 6 for Newham_Baitul Ahad Mosque,,
Sehri,18/03/2024,4:37,,,,Ramadhan 7 for Newham_Baitul Ahad Mosque,,
Sehri,19/03/2024,4:34,,,,Ramadhan 8 for Newham_Baitul Ahad Mosque,,
Sehri,20/03/2024,4:32,,,,Ramadhan 9 for Newham_Baitul Ahad Mosque,,
Sehri,21/03/2024,4:30,,,,Ramadhan 10 for Newham_Baitul Ahad Mosque,,
Sehri,22/03/2024,4:28,,,,Ramadhan 11 for Newham_Baitul Ahad Mosque,,
Sehri,23/03/2024,4:25,,,,Ramadhan 12 for Newham_Baitul Ahad Mosque,,
Sehri,24/03/2024,4:23,,,,Ramadhan 13 for Newham_Baitul Ahad Mosque,,
Sehri,25/03/2024,4:21,,,,Ramadhan 14 for Newham_Baitul Ahad Mosque,,
Sehri,26/03/2024,4:18,,,,Ramadhan 15 for Newham_Baitul Ahad Mosque,,
Sehri,27/03/2024,4:16,,,,Ramadhan 16 for Newham_Baitul Ahad Mosque,,
Sehri,28/03/2024,4:14,,,,Ramadhan 17 for Newham_Baitul Ahad Mosque,,
Sehri,29/03/2024,4:12,,,,Ramadhan 18 for Newham_Baitul Ahad Mosque,,
Sehri,30/03/2024,4:09,,,,Ramadhan 19 for Newham_Baitul Ahad Mosque,,
Sehri,31/03/2024,5:07,,,,Ramadhan 20 for Newham_Baitul Ahad Mosque,,
Sehri,01/04/2024,5:05,,,,Ramadhan 21 for Newham_Baitul Ahad Mosque,,
Sehri,02/04/2024,5:03,,,,Ramadhan 22 for Newham_Baitul Ahad Mosque,,
Sehri,03/04/2024,5:00,,,,Ramadhan 23 for Newham_Baitul Ahad Mosque,,
Sehri,04/04/2024,4:58,,,,Ramadhan 24 for Newham_Baitul Ahad Mosque,,
Sehri,05/04/2024,4:56,,,,Ramadhan 25 for Newham_Baitul Ahad Mosque,,
Sehri,06/04/2024,4:54,,,,Ramadhan 26 for Newham_Baitul Ahad Mosque,,
Sehri,07/04/2024,4:51,,,,Ramadhan 27 for Newham_Baitul Ahad Mosque,,
Sehri,08/04/2024,4:49,,,,Ramadhan 28 for Newham_Baitul Ahad Mosque,,
Sehri,09/04/2024,4:47,,,,Ramadhan 29 for Newham_Baitul Ahad Mosque,,
Iftari,12/03/2024,18:00,,,,Ramadhan 1 for Newham_Baitul Ahad Mosque,,
Iftari,13/03/2024,18:01,,,,Ramadhan 2 for Newham_Baitul Ahad Mosque,,
Iftari,14/03/2024,18:03,,,,Ramadhan 3 for Newham_Baitul Ahad Mosque,,
Iftari,15/03/2024,18:05,,,,Ramadhan 4 for Newham_Baitul Ahad Mosque,,
Iftari,16/03/2024,18:07,,,,Ramadhan 5 for Newham_Baitul Ahad Mosque,,
Iftari,17/03/2024,18:08,,,,Ramadhan 6 for Newham_Baitul Ahad Mosque,,
Iftari,18/03/2024,18:10,,,,Ramadhan 7 for Newham_Baitul Ahad Mosque,,
Iftari,19/03/2024,18:12,,,,Ramadhan 8 for Newham_Baitul Ahad Mosque,,
Iftari,20/03/2024,18:13,,,,Ramadhan 9 for Newham_Baitul Ahad Mosque,,
Iftari,21/03/2024,18:15,,,,Ramadhan 10 for Newham_Baitul Ahad Mosque,,
Iftari,22/03/2024,18:17,,,,Ramadhan 11 for Newham_Baitul Ahad Mosque,,
Iftari,23/03/2024,18:18,,,,Ramadhan 12 for Newham_Baitul Ahad Mosque,,
Iftari,24/03/2024,18:20,,,,Ramadhan 13 for Newham_Baitul Ahad Mosque,,
Iftari,25/03/2024,18:22,,,,Ramadhan 14 for Newham_Baitul Ahad Mosque,,
Iftari,26/03/2024,18:23,,,,Ramadhan 15 for Newham_Baitul Ahad Mosque,,
Iftari,27/03/2024,18:25,,,,Ramadhan 16 for Newham_Baitul Ahad Mosque,,
Iftari,28/03/2024,18:27,,,,Ramadhan 17 for Newham_Baitul Ahad Mosque,,
Iftari,29/03/2024,18:28,,,,Ramadhan 18 for Newham_Baitul Ahad Mosque,,
Iftari,30/03/2024,18:30,,,,Ramadhan 19 for Newham_Baitul Ahad Mosque,,
Iftari,31/03/2024,19:32,,,,Ramadhan 20 for Newham_Baitul Ahad Mosque,,
Iftari,01/04/2024,19:33,,,,Ramadhan 21 for Newham_Baitul Ahad Mosque,,
Iftari,02/04/2024,19:35,,,,Ramadhan 22 for Newham_Baitul Ahad Mosque,,
Iftari,03/04/2024,19:37,,,,Ramadhan 23 for Newham_Baitul Ahad Mosque,,
Iftari,04/04/2024,19:39,,,,Ramadhan 24 for Newham_Baitul Ahad Mosque,,
Iftari,05/04/2024,19:40,,,,Ramadhan 25 for Newham_Baitul Ahad Mosque,,
Iftari,06/04/2024,19:42,,,,Ramadhan 26 for Newham_Baitul Ahad Mosque,,
Iftari,07/04/2024,19:44,,,,Ramadhan 27 for Newham_Baitul Ahad Mosque,,
Iftari,08/04/2024,19:45,,,,Ramadhan 28 for Newham_Baitul Ahad Mosque,,
Iftari,09/04/2024,19:47,,,,Ramadhan 29 for Newham_Baitul Ahad Mosque,,
